Location: Newark
(41.0400°S, 62.7845°W)
Time: 22:10:05
(UTC+00:00)

deb Explorer IX - All Passes

Search period start: 06 December 2021 00:00
Search period end: 16 December 2021 00:00
Orbit: 546 x 1085 km, 38.8° (Epoch: 05 December)

Date Brightness Start Highest point End Pass type
(mag) Time Alt. Az. Time Alt. Az. Time Alt. Az.
06 Dec - 01:39:07 10° NW 01:45:03 51° NNE 01:51:47 10° E visible
06 Dec - 03:25:24 10° W 03:32:02 75° N 03:39:16 10° E visible
06 Dec - 05:12:18 10° W 05:19:13 62° NNW 05:26:23 10° ENE visible
06 Dec - 06:59:48 10° W 07:05:57 31° NNW 07:12:02 10° NNE visible
06 Dec - 23:30:09 10° N 23:33:53 18° NE 23:37:57 10° E daylight
07 Dec - 01:14:11 10° NW 01:19:56 49° NNE 01:26:31 10° E visible
07 Dec - 03:00:23 10° W 03:06:51 74° N 03:14:02 10° E visible
07 Dec - 04:47:13 10° W 04:54:01 62° NNW 05:01:11 10° ENE visible
07 Dec - 06:34:38 10° W 06:40:46 31° NNW 06:46:55 10° NNE visible
07 Dec - 23:05:21 10° N 23:08:49 17° NE 23:12:36 10° ENE daylight
08 Dec - 00:49:14 10° NW 00:54:49 48° NNE 01:01:14 10° E visible
08 Dec - 02:35:23 10° W 02:41:41 74° N 02:48:47 10° E visible
08 Dec - 04:22:09 10° W 04:28:49 62° NNW 04:35:58 10° ENE visible
08 Dec - 06:09:30 10° W 06:15:35 31° NNW 06:21:46 10° NNE visible
08 Dec - 22:40:34 10° N 22:43:46 16° NE 22:47:14 10° ENE daylight
09 Dec - 00:24:18 10° NW 00:29:42 47° NNE 00:35:57 10° E visible
09 Dec - 02:10:23 10° W 02:16:31 74° N 02:23:30 10° E visible
09 Dec - 03:57:05 10° W 04:03:37 62° NNW 04:10:44 10° ENE visible
09 Dec - 05:44:22 10° W 05:50:23 31° NNW 05:56:35 10° NNE visible
09 Dec - 22:15:48 10° N 22:18:43 15° NE 22:21:51 10° ENE daylight
09 Dec - 23:59:23 10° NW 00:04:36 46° NNE 00:10:40 10° E visible
10 Dec - 01:45:24 10° W 01:51:21 73° N 01:58:13 10° E visible
10 Dec - 03:32:02 10° W 03:38:25 62° NNW 03:45:28 10° ENE visible
10 Dec - 05:19:14 10° W 05:25:11 31° NNW 05:31:22 10° NNE visible
10 Dec - 21:51:04 10° N 21:53:40 14° NE 21:56:27 10° ENE daylight
10 Dec - 23:34:28 10° NW 23:39:30 44° NNE 23:45:22 10° E daylight
11 Dec - 01:20:26 10° W 01:26:12 73° N 01:32:54 10° E visible
11 Dec - 03:07:00 10° W 03:13:13 62° NNW 03:20:11 10° ENE visible
11 Dec - 04:54:08 10° W 04:59:57 31° NNW 05:06:08 10° NNE visible
11 Dec - 21:26:21 10° NNE 21:28:37 13° NE 21:31:02 10° ENE daylight
11 Dec - 23:09:34 10° NW 23:14:25 43° NNE 23:20:04 10° E daylight
12 Dec - 00:55:27 10° W 01:01:03 72° N 01:07:36 10° E visible
12 Dec - 02:41:59 10° W 02:48:01 62° NNW 02:54:53 10° ENE visible
12 Dec - 04:29:02 10° W 04:34:45 31° NNW 04:40:53 10° NNE visible
12 Dec - 21:01:40 10° NNE 21:03:35 12° NE 21:05:35 10° ENE daylight
12 Dec - 22:44:39 10° NW 22:49:19 42° NNE 22:54:46 10° E daylight
13 Dec - 00:30:30 10° WNW 00:35:55 71° N 00:42:17 10° E visible
13 Dec - 02:16:57 10° W 02:22:50 61° NNW 02:29:34 10° ENE visible
13 Dec - 04:03:58 10° W 04:09:33 31° NNW 04:15:35 10° NNE visible
13 Dec - 20:37:02 10° NNE 20:38:32 11° NE 20:40:05 10° ENE daylight
13 Dec - 22:19:44 10° NW 22:24:14 40° NNE 22:29:29 10° E daylight
14 Dec - 00:05:32 10° WNW 00:10:46 71° N 00:16:58 10° E visible
14 Dec - 01:51:57 10° W 01:57:38 61° NNW 02:04:13 10° ENE visible
14 Dec - 03:38:54 10° W 03:44:20 31° NNW 03:50:17 10° NNE visible
14 Dec - 20:12:30 10° NNE 20:13:29 11° NE 20:14:28 10° NE daylight
14 Dec - 21:54:49 10° NW 21:59:10 39° NNE 22:04:11 10° E daylight
14 Dec - 23:40:34 10° WNW 23:45:39 70° N 23:51:38 10° E daylight
15 Dec - 01:26:57 10° W 01:32:28 60° NNW 01:38:53 10° ENE visible
15 Dec - 03:13:50 10° W 03:19:07 30° NNW 03:24:57 10° NNE visible
15 Dec - 21:29:53 10° NW 21:34:06 37° NNE 21:38:55 10° E daylight
15 Dec - 23:15:37 10° WNW 23:20:32 69° N 23:26:19 10° E daylight
